Preview of NWS' New Version of Forecast
This preview is not operational and should not be used for support decisions.

Regional Weather Roundup (RWR)

Issued by National Weather Service (NWS)

                            
000
ASCA42 TJSJ 240010
RWRPR 
PUERTO RICO/U.S. VIRGIN ISLANDS HOURLY WEATHER ROUNDUP
NATIONAL WEATHER SERVICE SAN JUAN PR
800 PM AST SAT MAR 23 2019

PRZ001>002-007>008-010-240100-
PUERTO RICO
  
CITY           SKY/WX    TMP DP  RH WIND       PRES   REMARKS
SAN JUAN LMM   PTCLDY    77  70  78 E8        30.07R                  
AGUADILLA      CLOUDY    75  70  83 CALM      30.08R                  
CEIBA          PTCLDY    79  70  73 E7        30.09R                  
$$

VIZ001>002-240100-
U.S. VIRGIN ISLANDS
  
CITY           SKY/WX    TMP DP  RH WIND       PRES   REMARKS
CHARLOTTE AMA  CLEAR     79  68  69 E8        30.06R                  
CHRISTIANSTED  MOCLDY    77  70  78 NE6       30.07R                  
$$

HOURLY WEATHER ROUNDUP FOR THE NEWS MEDIA
  
CITY           SKY/WX    TMP DP  RH WIND       PRES   REMARKS
ORLANDO        FAIR      69  48  47 E13       30.20R                  
NEW YORK       FAIR      45   9  23 NW22G30   30.05R                  
NEWARK         FAIR      45   7  21 NW21G32   30.06R                  
CHICAGO        MOCLDY    49  26  41 S7        30.22R                  
HARTFORD       FAIR      40  23  50 NW13G22   29.86R WCI  32          
BOSTON         FAIR      42  22  44 W20G25    29.83R                  
DALLAS         MOCLDY    71  60  68 S12       29.98S                  
PHILADELPHIA   FAIR      50  11  20 W13       30.13R                  
LOS ANGELES    MOSUNNY   62  52  69 W14       30.12F                  
WASHINGTON DC  FAIR      48  15  26 NW7       30.22R